#timestamp,LO_Frequency,Hit,StdDev 
1684137615.5,286047002.4,N
1684137635.3,286047000.4,N
1684137655.1,286046998.4,N
1684137675.9,286046998.3,N
1684137695.7,286046998.9,N
1684137715.6,286046998.2,N
1684137735.4,286047001.2,N
1684137755.2,286047002.7,N
1684137775.1,286047000.1,N
1684137776.0,286047000.1,N
1684137795.8,286047001.8,N
1684137815.7,286047001.3,N
1684137835.5,286047002.3,N
1684137855.3,286047000.6,N
1684137875.2,286047002.7,N
1684137895.0,286047002.7,N
1684137895.9,286047002.7,N
1684137915.8,286047002.8,N
1684137935.6,286046998.5,N
1684137955.4,286046998.6,N
1684137975.3,286046998.6,N
1684137995.1,286047000.2,N
1684138015.8,286047001.6,N
1684138035.7,286047004.0,N
1684138055.5,286047004.3,N
1684138075.4,286047001.4,N
1684138095.2,286047003.9,N
1684138115.0,286047001.6,N
1684138115.9,286047001.6,N
1684138135.8,286047002.2,N
1684138155.6,286047004.3,N
1684138175.5,286047001.3,N
1684138195.3,286047004.3,N
1684138215.1,286047001.6,N
1684138235.9,286047003.9,N
1684138255.7,286047003.7,N
1684138275.6,286047004.0,N
1684138295.4,286047001.7,N
1684138315.2,286047004.2,N
1684138335.1,286047002.3,N
1684138336.0,286047002.3,N
1684138355.8,286046998.7,N
1684138375.7,286046996.7,N
1684138395.5,286046998.3,N
1684138415.3,286047001.0,N
1684138435.2,286047002.8,N
1684138455.0,286046999.9,N
1684138455.9,286046999.9,N
1684138475.8,286046998.1,N
1684138495.6,286047000.7,N
1684138515.4,286047000.3,N
1684138535.3,286046999.9,N
1684138555.1,286047000.3,N
1684138575.9,286047002.8,N
1684138595.7,286047000.1,N
1684138615.5,286046999.7,N
1684138635.4,286047002.1,N
1684138655.2,286047001.6,N
1684138675.1,286047002.4,N
1684138676.0,286047002.4,N
1684138695.8,286047000.4,N
1684138715.6,286047000.1,N
1684138735.5,286047000.9,N
1684138755.3,286047002.8,N
1684138775.2,286047000.1,N
1684138795.9,286047000.0,N
1684138815.7,286047004.2,N
1684138835.6,286047001.4,N
1684138855.4,286047001.2,N
1684138875.3,286046999.3,N
1684138895.1,286046998.8,N
1684138896.0,286046998.8,N
1684138915.8,286047000.6,N
1684138935.7,286047002.5,N
1684138955.5,286047001.6,N
1684138975.4,286047004.0,N
1684138995.2,286047001.5,N
1684139015.0,286047004.4,N
1684139015.9,286047004.4,N
1684139035.8,286047001.5,N
1684139055.6,286047004.3,N
1684139075.4,286047004.1,N
1684139095.3,286047003.4,N
1684139115.1,286047003.2,N
1684139135.9,286047002.9,N
1684139155.7,286047003.2,N
1684139175.5,286047003.2,N
1684139195.4,286047003.7,N
1684139215.2,286047003.3,N
1684139235.1,286047004.0,N
1684139236.0,286047004.0,N
1684139255.8,286047005.6,Y
1684139275.6,286046999.9,P
1684139295.5,286047000.9,N
1684139315.3,286047000.0,N
1684139335.2,286047002.3,N
1684139355.9,286047002.2,N
1684139375.7,286047002.4,N
1684139395.6,286047000.5,N
1684139415.4,286047000.9,N
1684139435.2,286046998.7,N
1684139455.1,286046999.0,N
1684139456.0,286046999.0,N
1684139475.8,286046999.0,N
1684139495.7,286046997.9,N
1684139515.5,286046997.3,N
1684139535.3,286046996.8,N
1684139555.2,286046997.9,N
1684139575.0,286046997.5,N
1684139575.9,286046997.5,N
1684139595.7,286046997.9,N
1684139615.6,286046997.8,N
1684139635.4,286046995.0,N
1684139655.3,286046997.6,N
1684139675.1,286046996.0,N
1684139695.9,286046995.7,N
1684139715.7,286046995.6,N
1684139735.5,286046993.7,N
1684139755.4,286046994.0,N
1684139775.2,286046994.5,N
1684139795.0,286046993.4,N
1684139795.9,286046993.4,N
1684139815.8,286046995.9,N
1684139835.6,286046995.1,N
1684139855.5,286046993.3,N
1684139875.3,286046993.3,N
1684139895.1,286046994.4,N
1684139915.9,286046994.5,N
1684139935.7,286046994.8,N
1684139955.6,286046992.2,Y
1684139975.4,286046997.3,P
1684139995.2,286046997.5,P
1684140015.1,286046999.6,N
1684140016.0,286046999.6,N
1684140035.8,286046998.8,N
1684140055.7,286046998.9,N
1684140075.5,286046999.3,N
1684140095.3,286046996.7,N
1684140115.2,286046999.1,N
1684140165.0,286046999.6,E
1684140175.9,286046996.9,N
1684140195.7,286046996.6,P
1684140215.6,286046997.7,P
1684140235.4,286046996.8,Y
1684140255.2,286047000.4,P
1684140275.1,286046998.5,N
1684140276.0,286046998.5,N
1684140295.8,286046998.2,N
1684140315.7,286046999.6,N
1684140335.5,286046999.1,N
1684140355.3,286046996.5,Y
1684140375.2,286047000.3,P
1684140395.0,286047000.3,N
1684140395.9,286047000.3,N
1684140415.7,286046999.9,N
1684140435.6,286047000.4,N
1684140455.4,286047000.5,N
1684140475.3,286047000.7,N
1684140495.1,286047000.8,N
1684140515.8,286046998.5,N
1684140535.7,286046999.0,N
1684140555.5,286046996.9,Y
1684140575.4,286046997.3,P
1684140595.2,286046997.2,N
1684140615.0,286046999.6,N
1684140615.9,286046999.6,N
1684140635.8,286046999.6,N
1684140655.6,286046999.2,N
1684140675.5,286046998.8,N
1684140695.3,286046996.6,Y
1684140715.1,286046998.3,P
1684140735.9,286047001.2,P
1684140755.7,286046998.7,N
1684140775.5,286046998.6,N
1684140795.4,286046999.6,N
1684140815.2,286046999.0,N
1684140835.1,286046998.9,N
1684140836.0,286046998.9,N
1684140855.8,286046998.1,N
1684140875.6,286046999.4,N
1684140895.5,286046998.3,N
1684140915.3,286046999.4,N
1684140935.1,286046998.7,N
1684140955.9,286046998.1,N
1684140975.7,286046998.6,N
1684140995.6,286047001.1,N
1684141015.4,286046999.0,N
1684141035.3,286046998.3,N
1684141055.1,286046998.3,N
1684141056.0,286046998.3,N
1684141075.8,286046999.0,N
1684141095.7,286046999.1,N
1684141115.5,286046999.6,N
1684141135.3,286046996.7,Y
1684141155.2,286046999.1,P
1684141175.0,286046996.8,P
1684141175.9,286046996.8,P
1684141195.8,286046997.9,N
